Location: Lake Crest
(37.6062°N, 88.9176°W)
Time: 15:52:30
(UTC+00:00)

Cosmos 405 Rocket - Pass Details

Date: 15 December 2019
Orbit: 490 x 554 km, 81.3° (Epoch: 28 January)

Event Time Altitude Azimuth Distance (km) Brightness Sun altitude
Rises 00:58:48 0° 340° (NNW) 2,578 6.4 -27.0°
Reaches altitude 10° 01:01:04 10° 330° (NNW) 1,695 5.5 -27.5°
Enters shadow 01:01:21 12° 328° (NNW) 1,590 5.4 -27.5°
Exits shadow 01:03:27 27° 295° (WNW) 978 4.5 -28.0°
Maximum altitude 01:04:22 31° 267° (W) 894 4.4 -28.1°
Drops below altitude 10° 01:07:41 10° 204° (SSW) 1,704 5.7 -28.8°
Sets 01:09:58 0° 194° (SSW) 2,593 6.5 -29.2°
